When you browse on this site, cookies collect data to enhance your experience and personalize the content and advertising you see.
Visit our Privacy Policy to learn more. By continuing to use the site, you agree to this use of cookies and data.
  • In Romania
  • List of Countries
  • For 7 days
  • Water Temperature
  • Satellite Maps
  • Weather Map
  • Weather Widgets
  • user-avatar
    Login

    Hourly Weather Seoni Malwa

    Today, 17 February, Sunday

    Time Temperature Precipitation Wind Pressure Humidity
    00:00 +19°C° 0 mm 1 mps 734 mmHg 47%
    01:00 +19°C° 0 mm 1 mps 733 mmHg 46%
    02:00 +17°C° 0 mm 2 mps 733 mmHg 46%
    03:00 +17°C° 0 mm 2 mps 733 mmHg 45%
    04:00 +16°C° 0 mm 2 mps 733 mmHg 44%
    05:00 +15°C° 0 mm 2 mps 733 mmHg 40%
    06:00 +16°C° 0 mm 2 mps 733 mmHg 39%
    07:00 +17°C° 0 mm 2 mps 734 mmHg 37%
    08:00 +18°C° 0 mm 2 mps 734 mmHg 36%
    09:00 +20°C° 0 mm 2 mps 734 mmHg 32%
    10:00 +24°C° 0 mm 2 mps 734 mmHg 28%
    11:00 +26°C° 0 mm 2 mps 735 mmHg 23%
    12:00 +27°C° 0 mm 2 mps 734 mmHg 21%
    13:00 +28°C° 0 mm 2 mps 733 mmHg 19%
    14:00 +29°C° 0 mm 2 mps 732 mmHg 17%
    15:00 +28°C° 0 mm 1 mps 732 mmHg 18%
    16:00 +28°C° 0 mm 1 mps 731 mmHg 20%
    17:00 +28°C° 0 mm 1 mps 731 mmHg 22%
    18:00 +26°C° 0 mm 1 mps 731 mmHg 22%
    19:00 +24°C° 0 mm 1 mps 732 mmHg 23%
    20:00 +23°C° 0 mm 1 mps 732 mmHg 23%
    21:00 +20°C° 0 mm 0 mps 732 mmHg 24%
    22:00 +20°C° 0 mm 0 mps 732 mmHg 25%
    23:00 +19°C° 0 mm 0 mps 732 mmHg 26%

    Tomorrow, 18 February, Monday

    Time Temperature Precipitation Wind Pressure Humidity
    00:00 +19°C° 0 mm 0 mps 731 mmHg 26%
    01:00 +18°C° 0 mm 0 mps 731 mmHg 27%
    02:00 +18°C° 0 mm 0 mps 731 mmHg 28%
    03:00 +18°C° 0 mm 0 mps 731 mmHg 28%
    04:00 +17°C° 0 mm 0 mps 731 mmHg 29%
    05:00 +19°C° 0 mm 1 mps 731 mmHg 29%
    06:00 +20°C° 0 mm 1 mps 731 mmHg 29%
    07:00 +21°C° 0 mm 1 mps 732 mmHg 28%
    08:00 +23°C° 0 mm 1 mps 732 mmHg 28%
    09:00 +25°C° 0 mm 1 mps 732 mmHg 25%
    10:00 +27°C° 0 mm 2 mps 733 mmHg 22%
    11:00 +30°C° 0 mm 2 mps 733 mmHg 18%
    12:00 +31°C° 0 mm 2 mps 732 mmHg 18%
    13:00 +32°C° 0 mm 2 mps 731 mmHg 17%
    14:00 +32°C° 0 mm 2 mps 731 mmHg 16%
    15:00 +32°C° 0 mm 2 mps 730 mmHg 18%
    16:00 +31°C° 0 mm 1 mps 730 mmHg 20%
    17:00 +31°C° 0 mm 1 mps 729 mmHg 22%
    18:00 +29°C° 0 mm 1 mps 730 mmHg 24%
    19:00 +27°C° 0 mm 1 mps 730 mmHg 25%
    20:00 +25°C° 0 mm 2 mps 730 mmHg 26%
    21:00 +25°C° 0 mm 2 mps 730 mmHg 27%
    22:00 +24°C° 0 mm 1 mps 730 mmHg 28%
    23:00 +24°C° 0 mm 1 mps 730 mmHg 28%

    Day after tomorrow, 19 February, Tuesday

    Time Temperature Precipitation Wind Pressure Humidity
    00:00 +23°C° 0 mm 1 mps 730 mmHg 29%
    01:00 +23°C° 0 mm 1 mps 730 mmHg 29%
    02:00 +22°C° 0 mm 1 mps 730 mmHg 30%
    03:00 +20°C° 0 mm 0 mps 730 mmHg 30%
    04:00 +19°C° 0 mm 0 mps 730 mmHg 31%
    05:00 +19°C° 0 mm 0 mps 730 mmHg 32%
    06:00 +20°C° 0 mm 0 mps 731 mmHg 31%
    07:00 +21°C° 0 mm 0 mps 732 mmHg 30%
    08:00 +22°C° 0 mm 0 mps 732 mmHg 29%
    09:00 +25°C° 0 mm 0 mps 733 mmHg 26%
    10:00 +27°C° 0 mm 0 mps 733 mmHg 22%
    11:00 +30°C° 0 mm 0 mps 733 mmHg 18%
    12:00 +33°C° 0 mm 1 mps 733 mmHg 17%
    13:00 +35°C° 0 mm 2 mps 732 mmHg 16%
    14:00 +35°C° 0 mm 2 mps 731 mmHg 14%
    15:00 +35°C° 0 mm 2 mps 731 mmHg 16%
    16:00 +34°C° 0 mm 2 mps 731 mmHg 17%
    17:00 +34°C° 0 mm 2 mps 731 mmHg 19%
    18:00 +31°C° 0 mm 1 mps 732 mmHg 19%
    19:00 +29°C° 0 mm 1 mps 732 mmHg 20%
    20:00 +25°C° 0 mm 0 mps 733 mmHg 20%
    21:00 +25°C° 0 mm 0 mps 733 mmHg 21%
    22:00 +24°C° 0 mm 0 mps 733 mmHg 21%
    23:00 +24°C° 0 mm 0 mps 733 mmHg 21%

    20 February, Wednesday

    Time Temperature Precipitation Wind Pressure Humidity
    00:00 +23°C° 0 mm 0 mps 733 mmHg 22%
    01:00 +22°C° 0 mm 0 mps 732 mmHg 23%
    02:00 +22°C° 0 mm 0 mps 732 mmHg 24%
    03:00 +23°C° 0 mm 1 mps 732 mmHg 25%
    04:00 +23°C° 0 mm 1 mps 732 mmHg 25%
    05:00 +23°C° 0 mm 1 mps 732 mmHg 26%
    06:00 +24°C° 0 mm 1 mps 733 mmHg 26%
    07:00 +25°C° 0 mm 1 mps 733 mmHg 26%
    08:00 +26°C° 0 mm 1 mps 734 mmHg 25%
    09:00 +29°C° 0 mm 1 mps 734 mmHg 22%
    10:00 +32°C° 0 mm 1 mps 734 mmHg 19%
    11:00 +34°C° 0 mm 1 mps 735 mmHg 15%
    12:00 +36°C° 0 mm 2 mps 734 mmHg 15%
    13:00 +37°C° 0 mm 2 mps 733 mmHg 14%
    14:00 +38°C° 0 mm 3 mps 732 mmHg 13%
    15:00 +38°C° 0 mm 2 mps 732 mmHg 16%
    16:00 +37°C° 0 mm 2 mps 732 mmHg 18%
    17:00 +36°C° 0 mm 2 mps 731 mmHg 21%
    18:00 +34°C° 0 mm 1 mps 732 mmHg 21%
    19:00 +32°C° 0 mm 1 mps 733 mmHg 22%
    20:00 +30°C° 0 mm 1 mps 733 mmHg 23%
    21:00 +29°C° 0.1 mm 2 mps 733 mmHg 25%
    22:00 +29°C° 0.1 mm 2 mps 734 mmHg 27%
    23:00 +28°C° 0.1 mm 2 mps 734 mmHg 29%

    21 February, Thursday

    Time Temperature Precipitation Wind Pressure Humidity
    00:00 +28°C° 0.1 mm 2 mps 733 mmHg 36%
    01:00 +27°C° 0.1 mm 2 mps 733 mmHg 43%
    02:00 +26°C° 0.1 mm 1 mps 733 mmHg 49%
    03:00 +26°C° 0.2 mm 1 mps 733 mmHg 53%
    04:00 +25°C° 0.2 mm 1 mps 733 mmHg 56%
    05:00 +25°C° 0.2 mm 1 mps 733 mmHg 59%
    06:00 +26°C° 0 mm 1 mps 734 mmHg 56%
    07:00 +27°C° 0 mm 1 mps 734 mmHg 53%
    08:00 +29°C° 0 mm 2 mps 735 mmHg 51%
    09:00 +31°C° 0 mm 3 mps 735 mmHg 44%
    10:00 +35°C° 0 mm 4 mps 735 mmHg 38%
    11:00 +39°C° 0 mm 5 mps 735 mmHg 32%
    12:00 +38°C° 0 mm 4 mps 734 mmHg 30%
    13:00 +40°C° 0 mm 4 mps 733 mmHg 28%
    14:00 +40°C° 0 mm 4 mps 732 mmHg 26%
    15:00 +38°C° 0 mm 3 mps 732 mmHg 27%
    16:00 +37°C° 0 mm 2 mps 732 mmHg 28%
    17:00 +37°C° 0 mm 2 mps 732 mmHg 29%
    18:00 +35°C° 0 mm 2 mps 732 mmHg 29%
    19:00 +32°C° 0 mm 2 mps 733 mmHg 29%
    20:00 +31°C° 0 mm 2 mps 733 mmHg 28%
    21:00 +30°C° 0 mm 2 mps 733 mmHg 28%
    22:00 +29°C° 0 mm 1 mps 733 mmHg 28%
    23:00 +28°C° 0 mm 1 mps 733 mmHg 28%

    22 February, Friday

    Time Temperature Precipitation Wind Pressure Humidity
    00:00 +27°C° 0 mm 1 mps 733 mmHg 29%
    01:00 +27°C° 0 mm 1 mps 733 mmHg 31%
    02:00 +26°C° 0 mm 1 mps 732 mmHg 33%
    03:00 +26°C° 0 mm 1 mps 732 mmHg 33%
    04:00 +26°C° 0 mm 1 mps 732 mmHg 34%
    05:00 +23°C° 0 mm 0 mps 732 mmHg 35%
    06:00 +26°C° 0 mm 1 mps 733 mmHg 35%
    07:00 +27°C° 0 mm 1 mps 734 mmHg 34%
    08:00 +28°C° 0 mm 1 mps 734 mmHg 34%
    09:00 +31°C° 0 mm 1 mps 734 mmHg 30%
    10:00 +33°C° 0 mm 1 mps 734 mmHg 26%
    11:00 +35°C° 0 mm 1 mps 734 mmHg 23%
    12:00 +37°C° 0 mm 2 mps 733 mmHg 22%
    13:00 +38°C° 0 mm 3 mps 733 mmHg 21%
    14:00 +38°C° 0 mm 4 mps 732 mmHg 20%
    15:00 +38°C° 0 mm 3 mps 731 mmHg 21%
    16:00 +37°C° 0 mm 3 mps 731 mmHg 23%
    17:00 +37°C° 0 mm 3 mps 731 mmHg 24%
    18:00 +35°C° 0 mm 3 mps 731 mmHg 26%
    19:00 +32°C° 0 mm 2 mps 732 mmHg 28%
    20:00 +31°C° 0 mm 2 mps 732 mmHg 29%
    21:00 +30°C° 0 mm 2 mps 732 mmHg 31%
    22:00 +29°C° 0 mm 2 mps 732 mmHg 32%
    23:00 +29°C° 0 mm 2 mps 732 mmHg 33%
    Show more